| time (UTC) | temp F | wind direction | speed MPH | gust MPH | rain 1hr in | rain 24hr in | rain mn in | humidity % | barometer mb |
| 20260505095814 | 59 | 202 | 3.0 | 7.0 | 0.00 | 0.00 | 0.00 | 80 | 1011.1 |
| 20260505095329 | 59 | 234 | 2.0 | 7.0 | 0.00 | 0.00 | 0.00 | 79 | 1011.1 |
| 20260505094820 | 59 | 205 | 3.0 | 8.0 | 0.00 | 0.00 | 0.00 | 79 | 1011.1 |
| 20260505094353 | 59 | 265 | 3.0 | 8.0 | 0.00 | 0.00 | 0.00 | 79 | 1011.1 |
| 20260505093823 | 59 | 208 | 2.0 | 7.0 | 0.00 | 0.00 | 0.00 | 80 | 1011.1 |
| 20260505093317 | 59 | 223 | 3.0 | 10.0 | 0.00 | 0.00 | 0.00 | 80 | 1011.1 |
| 20260505092829 | 59 | 254 | 4.0 | 10.0 | 0.00 | 0.00 | 0.00 | 80 | 1011.2 |
| 20260505092342 | 59 | 247 | 4.0 | 13.0 | 0.00 | 0.00 | 0.00 | 81 | 1011.1 |
| 20260505091817 | 59 | 260 | 5.0 | 13.0 | 0.00 | 0.00 | 0.00 | 81 | 1011.2 |
| 20260505091330 | 59 | 271 | 4.0 | 11.0 | 0.00 | 0.00 | 0.00 | 81 | 1011.2 |
| 20260505090821 | 59 | 219 | 3.0 | 7.0 | 0.00 | 0.00 | 0.00 | 82 | 1011.2 |
| 20260505090332 | 58 | 232 | 3.0 | 7.0 | 0.00 | 0.00 | 0.00 | 82 | 1011.2 |
| 20260505085824 | 58 | 238 | 2.0 | 4.0 | 0.00 | 0.00 | 0.00 | 82 | 1011.2 |
| 20260505085355 | 58 | 220 | 2.0 | 4.0 | 0.00 | 0.00 | 0.00 | 82 | 1011.2 |
| 20260505084826 | 58 | 215 | 2.0 | 4.0 | 0.00 | 0.00 | 0.00 | 82 | 1011.3 |
| 20260505084317 | 58 | 252 | 2.0 | 7.0 | 0.00 | 0.00 | 0.00 | 82 | 1011.2 |
| 20260505083827 | 58 | 215 | 1.0 | 7.0 | 0.00 | 0.00 | 0.00 | 82 | 1011.1 |
| 20260505083322 | 58 | 201 | 1.0 | 5.0 | 0.00 | 0.00 | 0.00 | 83 | 1011.1 |
| 20260505082854 | 58 | 229 | 2.0 | 4.0 | 0.00 | 0.00 | 0.00 | 83 | 1011.1 |
| 20260505082325 | 58 | 209 | 2.0 | 4.0 | 0.00 | 0.00 | 0.00 | 83 | 1011.1 |
| 20260505081816 | 57 | 193 | 2.0 | 7.0 | 0.00 | 0.00 | 0.00 | 83 | 1011.1 |
| 20260505081328 | 57 | 188 | 2.0 | 7.0 | 0.00 | 0.00 | 0.00 | 83 | 1011.1 |
| 20260505080823 | 57 | 229 | 3.0 | 5.0 | 0.00 | 0.00 | 0.00 | 84 | 1011.1 |
| 20260505080315 | 57 | 241 | 2.0 | 5.0 | 0.00 | 0.00 | 0.00 | 84 | 1011.0 |
| 20260505075826 | 57 | 213 | 2.0 | 5.0 | 0.00 | 0.00 | 0.00 | 84 | 1011.1 |
| 20260505075322 | 57 | 227 | 2.0 | 4.0 | 0.00 | 0.00 | 0.00 | 84 | 1011.1 |
| 20260505074833 | 57 | 213 | 2.0 | 4.0 | 0.00 | 0.00 | 0.00 | 84 | 1011.1 |
| 20260505074346 | 57 | 211 | 2.0 | 5.0 | 0.00 | 0.00 | 0.00 | 84 | 1011.1 |
| 20260505073818 | 57 | 183 | 3.0 | 6.0 | 0.00 | 0.00 | 0.00 | 85 | 1011.1 |
| 20260505073330 | 57 | 204 | 3.0 | 6.0 | 0.00 | 0.00 | 0.00 | 85 | 1011.0 |
| 20260505072821 | 57 | 194 | 2.0 | 7.0 | 0.00 | 0.00 | 0.00 | 85 | 1011.1 |
| 20260505072332 | 56 | 212 | 3.0 | 7.0 | 0.00 | 0.00 | 0.00 | 86 | 1011.0 |
| 20260505071844 | 56 | 235 | 2.0 | 5.0 | 0.00 | 0.00 | 0.00 | 86 | 1011.0 |
| 20260505071315 | 56 | 244 | 2.0 | 6.0 | 0.00 | 0.00 | 0.00 | 86 | 1010.9 |
| 20260505070826 | 56 | 180 | 2.0 | 7.0 | 0.00 | 0.00 | 0.00 | 86 | 1010.9 |
| 20260505070320 | 56 | 215 | 2.0 | 7.0 | 0.00 | 0.00 | 0.00 | 86 | 1010.9 |
| 20260505065831 | 56 | 214 | 2.0 | 5.0 | 0.00 | 0.00 | 0.00 | 86 | 1011.0 |
| 20260505065342 | 56 | 197 | 2.0 | 5.0 | 0.00 | 0.00 | 0.00 | 87 | 1010.9 |
| 20260505064852 | 56 | 199 | 2.0 | 5.0 | 0.00 | 0.00 | 0.00 | 87 | 1011.0 |
| 20260505064323 | 56 | 228 | 1.0 | 4.0 | 0.00 | 0.00 | 0.00 | 87 | 1011.0 |
| 20260505063815 | 56 | 216 | 2.0 | 4.0 | 0.00 | 0.00 | 0.00 | 87 | 1011.0 |
| 20260505063327 | 56 | 188 | 2.0 | 3.0 | 0.00 | 0.00 | 0.00 | 87 | 1011.0 |
| 20260505062838 | 56 | 223 | 1.0 | 4.0 | 0.00 | 0.00 | 0.00 | 87 | 1011.0 |
| 20260505062329 | 56 | 229 | 1.0 | 5.0 | 0.00 | 0.00 | 0.00 | 87 | 1011.0 |
| 20260505061820 | 56 | 232 | 2.0 | 5.0 | 0.00 | 0.00 | 0.00 | 87 | 1011.1 |
| 20260505061314 | 56 | 221 | 1.0 | 9.0 | 0.00 | 0.00 | 0.00 | 87 | 1011.0 |
| 20260505060828 | 56 | 189 | 3.0 | 9.0 | 0.00 | 0.00 | 0.00 | 87 | 1011.1 |
| 20260505060319 | 56 | 206 | 3.0 | 10.0 | 0.00 | 0.00 | 0.00 | 87 | 1011.1 |
| 20260505055831 | 56 | 204 | 4.0 | 10.0 | 0.00 | 0.00 | 0.00 | 87 | 1011.3 |
| 20260505055322 | 56 | 190 | 4.0 | 13.0 | 0.00 | 0.00 | 0.00 | 86 | 1011.2 |
| 20260505054854 | 56 | 248 | 4.0 | 13.0 | 0.00 | 0.00 | 0.00 | 86 | 1011.3 |
| 20260505054324 | 56 | 221 | 4.0 | 14.0 | 0.00 | 0.00 | 0.00 | 86 | 1011.2 |
| 20260505053818 | 57 | 159 | 6.0 | 15.0 | 0.00 | 0.00 | 0.00 | 86 | 1011.2 |
| 20260505053350 | 57 | 155 | 5.0 | 12.0 | 0.00 | 0.00 | 0.00 | 86 | 1011.1 |
| 20260505052840 | 57 | 202 | 5.0 | 12.0 | 0.00 | 0.00 | 0.00 | 86 | 1011.2 |
| 20260505052334 | 57 | 189 | 5.0 | 14.0 | 0.00 | 0.00 | 0.00 | 86 | 1011.3 |
| 20260505051825 | 57 | 188 | 6.0 | 14.0 | 0.00 | 0.00 | 0.00 | 86 | 1011.3 |
| 20260505051317 | 57 | 127 | 4.0 | 12.0 | 0.00 | 0.00 | 0.00 | 86 | 1011.4 |
| 20260505050848 | 57 | 162 | 6.0 | 12.0 | 0.00 | 0.00 | 0.00 | 86 | 1011.4 |
| 20260505050339 | 57 | 175 | 5.0 | 11.0 | 0.00 | 0.00 | 0.00 | 86 | 1011.5 |
| 20260505041324 | 58 | 159 | 5.0 | 11.0 | 0.00 | 0.00 | 0.00 | 84 | 1011.7 |
| 20260505040819 | 58 | 188 | 6.0 | 12.0 | 0.00 | 0.00 | 0.00 | 84 | 1011.6 |
| 20260505040331 | 58 | 187 | 4.0 | 12.0 | 0.00 | 0.00 | 0.00 | 84 | 1011.6 |
| 20260505035821 | 58 | 212 | 5.0 | 12.0 | 0.00 | 0.00 | 0.00 | 83 | 1011.7 |
| 20260505035353 | 58 | 196 | 5.0 | 11.0 | 0.00 | 0.00 | 0.00 | 83 | 1011.7 |
| 20260505034824 | 58 | 188 | 4.0 | 12.0 | 0.00 | 0.00 | 0.00 | 83 | 1011.7 |
| 20260505034315 | 58 | 155 | 4.0 | 10.0 | 0.00 | 0.00 | 0.00 | 82 | 1011.7 |
| 20260505033847 | 58 | 218 | 4.0 | 10.0 | 0.00 | 0.00 | 0.00 | 82 | 1011.7 |
| 20260505033324 | 58 | 236 | 4.0 | 11.0 | 0.00 | 0.00 | 0.00 | 81 | 1011.6 |
| 20260505032855 | 58 | 207 | 3.0 | 11.0 | 0.00 | 0.00 | 0.00 | 81 | 1011.7 |
| 20260505032327 | 59 | 192 | 6.0 | 11.0 | 0.00 | 0.00 | 0.00 | 80 | 1011.8 |
| 20260505031818 | 59 | 197 | 3.0 | 11.0 | 0.00 | 0.00 | 0.00 | 80 | 1011.9 |
| 20260505031330 | 59 | 229 | 4.0 | 11.0 | 0.00 | 0.00 | 0.00 | 79 | 1011.9 |
| 20260505030824 | 59 | 216 | 5.0 | 11.0 | 0.00 | 0.00 | 0.00 | 79 | 1011.9 |
| 20260505030314 | 59 | 207 | 4.0 | 12.0 | 0.00 | 0.00 | 0.00 | 79 | 1011.8 |
| 20260505025828 | 59 | 200 | 7.0 | 12.0 | 0.00 | 0.00 | 0.00 | 78 | 1011.9 |
| 20260505025324 | 59 | 154 | 4.0 | 11.0 | 0.00 | 0.00 | 0.00 | 78 | 1012.0 |
| 20260505024815 | 59 | 205 | 5.0 | 11.0 | 0.00 | 0.00 | 0.00 | 78 | 1011.9 |
| 20260505024330 | 59 | 186 | 4.0 | 9.0 | 0.00 | 0.00 | 0.00 | 78 | 1011.9 |
| 20260505023822 | 59 | 188 | 4.0 | 9.0 | 0.00 | 0.00 | 0.00 | 78 | 1012.0 |
| 20260505023353 | 59 | 187 | 5.0 | 9.0 | 0.00 | 0.00 | 0.00 | 78 | 1012.0 |
| 20260505022823 | 59 | 182 | 3.0 | 7.0 | 0.00 | 0.00 | 0.00 | 77 | 1012.0 |
| 20260505022319 | 59 | 209 | 3.0 | 7.0 | 0.00 | 0.00 | 0.00 | 77 | 1012.1 |
| 20260505021831 | 59 | 204 | 3.0 | 8.0 | 0.00 | 0.00 | 0.00 | 77 | 1012.1 |
| 20260505021322 | 59 | 203 | 3.0 | 8.0 | 0.00 | 0.00 | 0.00 | 77 | 1012.1 |
| 20260505020817 | 59 | 195 | 4.0 | 8.0 | 0.00 | 0.00 | 0.00 | 77 | 1012.1 |
| 20260505020311 | 59 | 183 | 4.0 | 8.0 | 0.00 | 0.00 | 0.00 | 77 | 1012.1 |
| 20260505015826 | 59 | 186 | 3.0 | 8.0 | 0.00 | 0.00 | 0.00 | 77 | 1012.1 |
| 20260505015319 | 59 | 200 | 4.0 | 7.0 | 0.00 | 0.00 | 0.00 | 77 | 1012.0 |
| 20260505014829 | 59 | 211 | 3.0 | 7.0 | 0.00 | 0.00 | 0.00 | 77 | 1012.0 |
| 20260505014341 | 59 | 206 | 3.0 | 7.0 | 0.00 | 0.00 | 0.00 | 78 | 1012.0 |
| 20260505013831 | 59 | 213 | 3.0 | 11.0 | 0.00 | 0.00 | 0.00 | 78 | 1012.0 |
| 20260505013323 | 59 | 230 | 4.0 | 11.0 | 0.00 | 0.00 | 0.00 | 78 | 1012.0 |
| 20260505012818 | 59 | 174 | 5.0 | 8.0 | 0.00 | 0.00 | 0.00 | 79 | 1012.0 |
| 20260505012333 | 59 | 155 | 4.0 | 8.0 | 0.00 | 0.00 | 0.00 | 79 | 1011.9 |
| 20260505011316 | 59 | 180 | 5.0 | 11.0 | 0.00 | 0.00 | 0.00 | 80 | 1011.9 |
| 20260505010338 | 58 | 161 | 4.0 | 8.0 | 0.00 | 0.00 | 0.00 | 80 | 1011.8 |
| 20260505005849 | 59 | 187 | 3.0 | 12.0 | 0.00 | 0.00 | 0.00 | 80 | 1011.8 |
| 20260505005340 | 58 | 179 | 4.0 | 12.0 | 0.00 | 0.00 | 0.00 | 80 | 1011.7 |
| 20260505004833 | 59 | 167 | 6.0 | 11.0 | 0.00 | 0.00 | 0.00 | 80 | 1011.6 |
| 20260505004325 | 59 | 173 | 4.0 | 10.0 | 0.00 | 0.00 | 0.00 | 80 | 1011.6 |
| 20260505003823 | 59 | 214 | 5.0 | 11.0 | 0.00 | 0.00 | 0.00 | 79 | 1011.5 |
| 20260505003315 | 59 | 185 | 5.0 | 11.0 | 0.00 | 0.00 | 0.00 | 79 | 1011.5 |
| 20260505002828 | 59 | 175 | 5.0 | 11.0 | 0.00 | 0.00 | 0.00 | 79 | 1011.5 |
| 20260505002319 | 59 | 195 | 4.0 | 13.0 | 0.00 | 0.00 | 0.00 | 79 | 1011.3 |
| 20260505001831 | 59 | 169 | 7.0 | 13.0 | 0.00 | 0.00 | 0.00 | 78 | 1011.2 |
| 20260505001325 | 59 | 209 | 6.0 | 13.0 | 0.00 | 0.00 | 0.00 | 78 | 1011.2 |
| 20260505000816 | 59 | 165 | 5.0 | 13.0 | 0.00 | 0.00 | 0.00 | 77 | 1011.0 |
| 20260505000327 | 59 | 207 | 3.0 | 11.0 | 0.00 | 0.00 | 0.00 | 76 | 1011.0 |
| 20260504235823 | 59 | 207 | 5.0 | 15.0 | 0.00 | 0.00 | 0.00 | 76 | 1011.0 |
| 20260504235333 | 60 | 182 | 6.0 | 16.0 | 0.00 | 0.00 | 0.00 | 75 | 1010.9 |
| 20260504234825 | 60 | 200 | 5.0 | 19.0 | 0.00 | 0.00 | 0.00 | 75 | 1011.0 |
| 20260504234339 | 60 | 199 | 5.0 | 19.0 | 0.00 | 0.00 | 0.00 | 74 | 1010.9 |
| 20260504233829 | 61 | 178 | 6.0 | 17.0 | 0.00 | 0.00 | 0.00 | 73 | 1010.9 |
| 20260504233320 | 61 | 207 | 8.0 | 17.0 | 0.00 | 0.00 | 0.00 | 73 | 1010.8 |
| 20260504232815 | 61 | 138 | 4.0 | 14.0 | 0.00 | 0.00 | 0.00 | 72 | 1010.8 |
| 20260504232326 | 61 | 167 | 6.0 | 17.0 | 0.00 | 0.00 | 0.00 | 71 | 1010.7 |
| 20260504231819 | 62 | 163 | 6.0 | 17.0 | 0.00 | 0.00 | 0.00 | 70 | 1010.7 |
| 20260504231316 | 62 | 198 | 7.0 | 17.0 | 0.00 | 0.00 | 0.00 | 69 | 1010.7 |
| 20260504230827 | 62 | 175 | 8.0 | 16.0 | 0.00 | 0.00 | 0.00 | 69 | 1010.6 |
| 20260504230318 | 63 | 194 | 5.0 | 14.0 | 0.00 | 0.00 | 0.00 | 68 | 1010.6 |
| 20260504225849 | 63 | 164 | 5.0 | 18.0 | 0.00 | 0.00 | 0.00 | 67 | 1010.6 |
| 20260504225320 | 63 | 200 | 4.0 | 17.0 | 0.00 | 0.00 | 0.00 | 66 | 1010.6 |
| 20260504224831 | 64 | 200 | 6.0 | 18.0 | 0.00 | 0.00 | 0.00 | 65 | 1010.5 |
| 20260504224323 | 64 | 188 | 8.0 | 18.0 | 0.00 | 0.00 | 0.00 | 64 | 1010.5 |
| 20260504223834 | 64 | 213 | 6.0 | 17.0 | 0.00 | 0.00 | 0.00 | 63 | 1010.5 |
| 20260504223346 | 64 | 153 | 6.0 | 17.0 | 0.00 | 0.00 | 0.00 | 64 | 1010.5 |
| 20260504222819 | 64 | 140 | 8.0 | 20.0 | 0.00 | 0.00 | 0.00 | 64 | 1010.4 |
| 20260504222334 | 64 | 184 | 9.0 | 20.0 | 0.00 | 0.00 | 0.00 | 64 | 1010.5 |
| 20260504221824 | 64 | 172 | 7.0 | 22.0 | 0.00 | 0.00 | 0.00 | 64 | 1010.4 |
| 20260504221315 | 65 | 176 | 8.0 | 18.0 | 0.00 | 0.00 | 0.00 | 62 | 1010.5 |
| 20260504220827 | 65 | 180 | 8.0 | 22.0 | 0.00 | 0.00 | 0.00 | 61 | 1010.5 |
| 20260504220319 | 65 | 139 | 8.0 | 22.0 | 0.00 | 0.00 | 0.00 | 60 | 1010.5 |
| 20260504215831 | 65 | 145 | 10.0 | 21.0 | 0.00 | 0.00 | 0.00 | 60 | 1010.5 |
| 20260504215326 | 66 | 178 | 12.0 | 19.0 | 0.00 | 0.00 | 0.00 | 59 | 1010.5 |
| 20260504214823 | 66 | 200 | 8.0 | 21.0 | 0.00 | 0.00 | 0.00 | 57 | 1010.5 |
| 20260504214314 | 66 | 209 | 10.0 | 21.0 | 0.00 | 0.00 | 0.00 | 57 | 1010.5 |
| 20260504213828 | 66 | 288 | 6.0 | 19.0 | 0.00 | 0.00 | 0.00 | 56 | 1010.6 |
| 20260504213319 | 66 | 217 | 9.0 | 22.0 | 0.00 | 0.00 | 0.00 | 55 | 1010.7 |
| 20260504212831 | 66 | 215 | 11.0 | 22.0 | 0.00 | 0.00 | 0.00 | 55 | 1010.6 |
| 20260504212323 | 66 | 212 | 7.0 | 21.0 | 0.00 | 0.00 | 0.00 | 56 | 1010.6 |
| 20260504211836 | 66 | 157 | 10.0 | 19.0 | 0.00 | 0.00 | 0.00 | 56 | 1010.5 |
| 20260504211329 | 66 | 194 | 8.0 | 17.0 | 0.00 | 0.00 | 0.00 | 56 | 1010.6 |
| 20260504210821 | 66 | 178 | 9.0 | 17.0 | 0.00 | 0.00 | 0.00 | 56 | 1010.5 |
| 20260504210316 | 66 | 95 | 7.0 | 22.0 | 0.00 | 0.00 | 0.00 | 57 | 1010.5 |
| 20260504205828 | 66 | 178 | 9.0 | 22.0 | 0.00 | 0.00 | 0.00 | 56 | 1010.4 |
| 20260504205342 | 66 | 124 | 8.0 | 21.0 | 0.00 | 0.00 | 0.00 | 56 | 1010.4 |
| 20260504204832 | 66 | 150 | 7.0 | 17.0 | 0.00 | 0.00 | 0.00 | 58 | 1010.4 |
| 20260504204323 | 66 | 134 | 8.0 | 17.0 | 0.00 | 0.00 | 0.00 | 58 | 1010.5 |
| 20260504203834 | 65 | 218 | 7.0 | 18.0 | 0.00 | 0.00 | 0.00 | 60 | 1010.4 |
| 20260504203327 | 64 | 138 | 8.0 | 18.0 | 0.00 | 0.00 | 0.00 | 63 | 1010.4 |
| 20260504202821 | 64 | 205 | 6.0 | 16.0 | 0.00 | 0.00 | 0.00 | 64 | 1010.5 |
| 20260504202332 | 64 | 143 | 6.0 | 12.0 | 0.00 | 0.00 | 0.00 | 63 | 1010.6 |
| 20260504201824 | 65 | 198 | 6.0 | 16.0 | 0.00 | 0.00 | 0.00 | 62 | 1010.5 |
| 20260504201319 | 65 | 168 | 8.0 | 16.0 | 0.00 | 0.00 | 0.00 | 62 | 1010.6 |
| 20260504200851 | 64 | 131 | 6.0 | 18.0 | 0.00 | 0.00 | 0.00 | 63 | 1010.6 |
| 20260504200321 | 64 | 157 | 8.0 | 18.0 | 0.00 | 0.00 | 0.00 | 63 | 1010.7 |
| 20260504195812 | 64 | 262 | 10.0 | 18.0 | 0.00 | 0.00 | 0.00 | 61 | 1010.7 |
| 20260504195328 | 65 | 165 | 7.0 | 18.0 | 0.00 | 0.00 | 0.00 | 61 | 1010.8 |
| 20260504194331 | 66 | 181 | 9.0 | 22.0 | 0.00 | 0.00 | 0.00 | 59 | 1010.8 |
| 20260504193826 | 67 | 165 | 9.0 | 14.0 | 0.00 | 0.00 | 0.00 | 56 | 1010.8 |
| 20260504193324 | 68 | 184 | 7.0 | 15.0 | 0.00 | 0.00 | 0.00 | 55 | 1010.8 |
| 20260504192839 | 68 | 169 | 7.0 | 20.0 | 0.00 | 0.00 | 0.00 | 53 | 1011.0 |
| 20260504191822 | 69 | 179 | 7.0 | 16.0 | 0.00 | 0.00 | 0.00 | 52 | 1011.0 |
| 20260504191337 | 69 | 184 | 5.0 | 18.0 | 0.00 | 0.00 | 0.00 | 52 | 1011.2 |
| 20260504190827 | 69 | 238 | 4.0 | 18.0 | 0.00 | 0.00 | 0.00 | 55 | 1011.3 |
| 20260504190318 | 68 | 159 | 6.0 | 11.0 | 0.00 | 0.00 | 0.00 | 56 | 1011.3 |
| 20260504185830 | 69 | 145 | 7.0 | 17.0 | 0.00 | 0.00 | 0.00 | 55 | 1011.4 |
| 20260504185321 | 70 | 161 | 7.0 | 15.0 | 0.00 | 0.00 | 0.00 | 54 | 1011.5 |
| 20260504184813 | 69 | 134 | 6.0 | 16.0 | 0.00 | 0.00 | 0.00 | 54 | 1011.5 |
| 20260504184331 | 69 | 139 | 4.0 | 16.0 | 0.00 | 0.00 | 0.00 | 56 | 1011.6 |
| 20260504183822 | 69 | 202 | 7.0 | 16.0 | 0.00 | 0.00 | 0.00 | 56 | 1011.7 |
| 20260504183314 | 68 | 181 | 6.0 | 13.0 | 0.00 | 0.00 | 0.00 | 56 | 1011.7 |
| 20260504182825 | 69 | 151 | 7.0 | 19.0 | 0.00 | 0.00 | 0.00 | 56 | 1011.8 |
| 20260504182337 | 70 | 171 | 8.0 | 19.0 | 0.00 | 0.00 | 0.00 | 54 | 1011.9 |
| 20260504181811 | 69 | 234 | 6.0 | 15.0 | 0.00 | 0.00 | 0.00 | 56 | 1011.8 |
| 20260504181325 | 69 | 186 | 7.0 | 14.0 | 0.00 | 0.00 | 0.00 | 54 | 1011.9 |
| 20260504180817 | 69 | 119 | 5.0 | 13.0 | 0.00 | 0.00 | 0.00 | 54 | 1012.0 |
| 20260504180314 | 69 | 183 | 4.0 | 13.0 | 0.00 | 0.00 | 0.00 | 55 | 1012.1 |
| 20260504175829 | 70 | 189 | 8.0 | 13.0 | 0.00 | 0.00 | 0.00 | 53 | 1012.1 |
| 20260504175320 | 70 | 143 | 8.0 | 13.0 | 0.00 | 0.00 | 0.00 | 51 | 1012.0 |
| 20260504174854 | 71 | 186 | 4.0 | 16.0 | 0.00 | 0.00 | 0.00 | 51 | 1012.0 |
| 20260504174344 | 71 | 196 | 7.0 | 16.0 | 0.00 | 0.00 | 0.00 | 49 | 1012.2 |
| 20260504173818 | 72 | 172 | 4.0 | 16.0 | 0.00 | 0.00 | 0.00 | 49 | 1012.3 |
| 20260504173329 | 72 | 169 | 7.0 | 15.0 | 0.00 | 0.00 | 0.00 | 44 | 1012.3 |
| 20260504172821 | 73 | 175 | 4.0 | 11.0 | 0.00 | 0.00 | 0.00 | 46 | 1012.2 |
| 20260504172355 | 73 | 148 | 4.0 | 11.0 | 0.00 | 0.00 | 0.00 | 46 | 1012.4 |
| 20260504171825 | 75 | 171 | 5.0 | 16.0 | 0.00 | 0.00 | 0.00 | 30 | 1012.5 |
| 20260504171320 | 75 | 263 | 4.0 | 11.0 | 0.00 | 0.00 | 0.00 | 29 | 1012.5 |
| 20260504170833 | 75 | 167 | 3.0 | 10.0 | 0.00 | 0.00 | 0.00 | 31 | 1012.5 |
| 20260504170322 | 74 | 261 | 2.0 | 15.0 | 0.00 | 0.00 | 0.00 | 30 | 1012.6 |
| 20260504160324 | 72 | 294 | 6.0 | 14.0 | 0.00 | 0.00 | 0.00 | 32 | 1013.3 |
| 20260504150817 | 69 | 209 | 4.0 | 17.0 | 0.00 | 0.00 | 0.00 | 37 | 1013.8 |
| 20260504150329 | 69 | 233 | 8.0 | 17.0 | 0.00 | 0.00 | 0.00 | 36 | 1013.8 |
| 20260504141319 | 66 | 228 | 6.0 | 18.0 | 0.00 | 0.00 | 0.00 | 38 | 1014.2 |
| 20260504140831 | 66 | 263 | 6.0 | 18.0 | 0.00 | 0.00 | 0.00 | 37 | 1014.3 |
| 20260504140322 | 65 | 244 | 7.0 | 13.0 | 0.00 | 0.00 | 0.00 | 39 | 1014.2 |
| 20260504130325 | 60 | 219 | 5.0 | 10.0 | 0.00 | 0.00 | 0.00 | 54 | 1014.8 |
| 20260504110333 | 50 | 247 | 3.0 | 12.0 | 0.00 | 0.00 | 0.00 | 70 | 1015.7 |
| 20260504100318 | 49 | 241 | 5.0 | 15.0 | 0.00 | 0.00 | 0.00 | 66 | 1015.4 |